GW3157 Weather Reports


Display with metric or nautical units.
time (UTC)temp
F
wind
direction
speed
MPH
gust
MPH
rain 1hr
in
rain 24hr
in
rain mn
in
humidity
%
barometer
mb
20260508105002 53 335 27.0 45.0 0.02 0.92 0.24 98 996.9
20260508104002 53 320 28.0 42.0 0.03 0.91 0.24 98 996.7
20260508103002 53 195 27.0 40.0 0.03 0.91 0.24 98 996.6
20260508102501 53 310 30.0 44.0 0.03 0.91 0.24 98 996.5
20260508101002 53 218 32.0 47.0 0.03 0.91 0.24 98 996.1
20260508100501 54 185 31.0 42.0 0.02 0.91 0.23 98 996.1
20260508100010 54 290 29.0 43.0 0.02 0.90 0.22 98 996.1
20260508095501 54 175 29.0 44.0 0.02 0.99 0.22 97 996.0
20260508095002 54 169 30.0 44.0 0.02 0.99 0.22 97 995.9
20260508094501 54 326 31.0 43.0 0.01 0.98 0.21 97 995.7
20260508094001 54 329 31.0 43.0 0.00 0.98 0.20 97 995.5
20260508093002 54 309 33.0 45.0 0.02 0.98 0.20 98 995.5
20260508092002 54 262 31.0 45.0 0.02 0.98 0.20 98 995.2
20260508091501 54 168 31.0 44.0 0.02 0.98 0.20 98 995.0
20260508091002 54 171 30.0 41.0 0.05 0.98 0.20 98 995.0
20260508090502 54 292 30.0 41.0 0.07 0.98 0.20 98 995.0
20260508090009 55 316 31.0 46.0 0.10 0.98 0.20 98 994.9
20260508085502 55 199 30.0 43.0 0.12 1.02 0.20 97 994.8
20260508085002 55 291 30.0 45.0 0.13 1.02 0.20 97 994.8
20260508084502 55 238 33.0 45.0 0.13 1.02 0.20 96 994.8
20260508084002 56 336 33.0 43.0 0.13 1.02 0.20 95 994.7
20260508083501 56 318 28.0 43.0 0.12 1.00 0.19 94 994.7
20260508083002 56 206 26.0 45.0 0.11 0.99 0.18 94 994.6
20260508082501 56 162 25.0 45.0 0.11 0.99 0.18 95 994.7
20260508082002 56 321 15.0 44.0 0.11 0.99 0.18 96 994.6
20260508081501 54 341 9.0 19.0 0.11 0.99 0.18 96 994.7
20260508081002 54 296 7.0 12.0 0.08 0.96 0.15 96 994.7
20260508080005 54 316 11.0 18.0 0.03 0.91 0.10 96 994.7
20260508075500 54 336 14.0 20.0 0.02 1.56 0.09 95 994.6
20260508075002 54 344 15.0 21.0 0.01 1.55 0.08 95 994.6
20260508074500 55 344 14.0 21.0 0.00 1.54 0.07 95 994.7
20260508074001 55 338 14.0 21.0 0.00 1.54 0.07 95 994.7
20260508073500 55 341 13.0 21.0 0.00 1.54 0.07 95 994.7
20260508072500 55 341 13.0 19.0 0.00 1.54 0.07 94 994.9
20260508072001 55 340 13.0 18.0 0.00 1.54 0.07 94 995.1
20260508071500 55 341 13.0 20.0 0.00 1.54 0.07 94 995.4
20260508071001 55 338 13.0 20.0 0.00 1.54 0.07 94 995.5
20260508070501 55 336 15.0 21.0 0.00 1.54 0.07 93 995.7
20260508070005 55 343 15.0 21.0 0.00 1.54 0.07 94 995.7
20260508065501 55 342 14.0 20.0 0.00 1.60 0.07 94 995.9
20260508064501 55 341 14.0 20.0 0.03 1.60 0.07 93 996.1
20260508064002 55 339 13.0 20.0 0.04 1.60 0.07 94 996.2
20260508063501 55 337 12.0 20.0 0.04 1.60 0.07 93 996.5
20260508063002 55 340 12.0 20.0 0.05 1.60 0.07 94 996.6
20260508062501 55 328 13.0 19.0 0.06 1.60 0.07 94 996.7
20260508061501 55 338 11.0 18.0 0.06 1.60 0.07 95 996.9
20260508061002 55 333 10.0 15.0 0.06 1.60 0.07 94 997.0
20260508060501 55 340 9.0 14.0 0.07 1.60 0.07 94 997.2
20260508055500 55 337 13.0 21.0 0.06 1.59 0.06 94 997.2
20260508055001 55 334 14.0 21.0 0.05 1.57 0.05 94 997.4
20260508054500 55 338 14.0 20.0 0.04 1.57 0.04 93 997.3
20260508054001 55 342 14.0 19.0 0.03 1.56 0.03 93 997.2
20260508053500 56 336 15.0 21.0 0.03 1.56 0.03 93 997.2
20260508053001 56 334 15.0 22.0 0.02 1.55 0.02 92 997.1
20260508052501 56 335 16.0 25.0 0.02 1.54 0.02 92 997.1
20260508052001 56 308 17.0 25.0 0.02 1.54 0.02 92 997.1
20260508051500 56 336 19.0 26.0 0.01 1.54 0.01 92 997.1
20260508051003 56 323 19.0 26.0 0.01 1.54 0.01 91 996.9
20260508050500 57 319 18.0 26.0 0.00 1.53 0.00 91 996.9
20260508045500 57 329 17.0 25.0 0.00 1.53 0.00 89 996.9
20260508045001 57 335 17.0 25.0 0.00 1.53 0.00 88 997.1
20260508044500 57 338 16.0 23.0 0.00 1.53 0.00 88 997.2
20260508044001 57 324 15.0 22.0 0.00 1.53 0.00 88 997.2
20260508043500 57 338 14.0 22.0 0.00 1.53 0.00 89 997.2
20260508043002 57 338 14.0 21.0 0.00 1.53 0.00 89 997.1
20260508041500 57 335 14.0 20.0 0.00 1.53 0.00 89 997.6
20260508041001 58 328 13.0 19.0 0.00 1.53 0.00 88 997.6
20260508040500 58 336 14.0 28.0 0.00 1.53 0.00 87 997.5
20260508040005 59 331 18.0 31.0 0.00 1.53 0.00 85 997.6
20260508035500 59 180 21.0 31.0 0.00 1.53 0.00 84 997.6
20260508035002 59 312 20.0 30.0 0.00 1.53 0.00 83 997.5
20260508034500 59 272 20.0 30.0 0.00 1.53 0.00 83 997.3
20260508034001 59 319 21.0 29.0 0.00 1.53 0.00 83 997.1
20260508033500 59 286 22.0 30.0 0.00 1.53 0.00 83 997.1
20260508033001 59 165 22.0 31.0 0.00 1.53 0.00 83 997.1
20260508032500 59 282 21.0 31.0 0.00 1.53 0.00 83 996.9
20260508032001 59 265 16.0 28.0 0.00 1.53 0.00 83 996.9
20260508031500 59 328 13.0 26.0 0.00 1.53 0.00 85 996.9
20260508031001 59 180 13.0 26.0 0.00 1.53 0.00 85 996.6
20260508030008 59 175 15.0 25.0 0.00 1.53 0.00 84 996.4
20260508025503 59 288 16.0 25.0 0.00 1.53 1.53 85 996.3
20260508025003 59 308 15.0 24.0 0.00 1.53 1.53 85 996.8
20260508024003 60 176 16.0 24.0 0.00 1.53 1.53 87 997.5
20260508023502 59 169 16.0 26.0 0.00 1.53 1.53 86 997.1
20260508023005 60 163 16.0 26.0 0.00 1.53 1.53 87 997.3
20260508022502 59 258 16.0 27.0 0.00 1.53 1.53 85 997.3
20260508022003 60 170 16.0 28.0 0.00 1.53 1.53 86 997.2
20260508021504 60 184 17.0 28.0 0.00 1.53 1.53 85 997.1
20260508021005 60 208 15.0 24.0 0.00 1.53 1.53 86 997.1
20260508020500 60 180 15.0 23.0 0.00 1.53 1.53 87 997.0
20260508015005 60 162 16.0 26.0 0.00 1.53 1.53 87 997.2
20260508014005 60 340 16.0 28.0 0.00 1.53 1.53 86 997.2
20260508013503 60 172 17.0 31.0 0.00 1.53 1.53 87 997.2
20260508013008 60 196 17.0 31.0 0.00 1.53 1.53 88 997.2
20260508012503 60 173 15.0 26.0 0.00 1.53 1.53 89 997.5
20260508012006 60 166 14.0 25.0 0.00 1.53 1.53 88 997.6
20260508011502 60 336 15.0 27.0 0.00 1.53 1.53 88 997.9
20260508010505 60 178 21.0 34.0 0.00 1.53 1.53 88 998.2
20260508010011 60 334 24.0 34.0 0.00 1.53 1.53 89 998.5
20260508005503 60 326 25.0 35.0 0.00 1.54 1.53 89 998.8
20260508005009 60 316 24.0 35.0 0.00 1.54 1.53 89 999.0
20260508003503 60 293 18.0 32.0 0.00 1.54 1.53 91 998.7
20260508002503 61 161 16.0 26.0 0.00 1.54 1.53 92 998.0
20260508002010 60 198 16.0 25.0 0.00 1.54 1.53 91 997.8
20260508001503 61 207 15.0 25.0 0.00 1.54 1.53 91 998.1
20260508000503 61 334 17.0 29.0 0.00 1.54 1.53 91 998.2
20260507235501 61 162 22.0 36.0 0.00 1.54 1.53 91 998.6
20260507234503 61 319 28.0 37.0 0.00 1.54 1.53 91 998.7
20260507233502 61 230 25.0 35.0 0.00 1.54 1.53 92 998.9
20260507233002 62 171 22.0 32.0 0.00 1.54 1.53 93 999.0
20260507232503 62 241 21.0 29.0 0.00 1.54 1.53 92 999.1
20260507231501 62 209 20.0 27.0 0.00 1.54 1.53 91 999.4
20260507225503 61 336 13.0 25.0 0.00 1.54 1.53 92 999.2
20260507225003 62 330 11.0 19.0 0.00 1.54 1.53 92 999.1
20260507224502 62 170 13.0 21.0 0.00 1.54 1.53 92 998.9
20260507224006 61 170 13.0 21.0 0.00 1.54 1.53 91 999.0
20260507223501 61 196 12.0 21.0 0.00 1.54 1.53 92 999.0
20260507222504 61 173 13.0 21.0 0.00 1.54 1.53 91 998.9
20260507222003 61 222 13.0 20.0 0.00 1.54 1.53 92 998.8
20260507221502 61 331 12.0 20.0 0.00 1.54 1.53 92 998.8
20260507221003 61 308 11.0 20.0 0.00 1.54 1.53 93 998.7
20260507215503 61 199 13.0 22.0 0.00 1.54 1.53 93 998.0
20260507214502 61 235 11.0 19.0 0.00 1.54 1.53 96 997.7
20260507214003 61 326 10.0 17.0 0.00 1.54 1.53 96 997.6
20260507213501 61 204 10.0 17.0 0.00 1.54 1.53 96 997.6
20260507213003 61 171 9.0 17.0 0.00 1.54 1.53 97 997.8
20260507212501 61 173 8.0 16.0 0.00 1.54 1.53 98 998.1
20260507212003 61 245 10.0 17.0 0.00 1.54 1.53 98 998.5
20260507211502 61 172 13.0 22.0 0.00 1.54 1.53 98 998.4
20260507211002 60 277 17.0 22.0 0.00 1.54 1.53 99 998.3
20260507210502 60 177 19.0 24.0 0.00 1.54 1.53 99 998.4
20260507210007 60 168 19.0 24.0 0.01 1.54 1.53 99 998.2
20260507205502 60 170 19.0 24.0 0.01 1.54 1.53 100 998.6
20260507204501 60 167 19.0 26.0 0.01 1.54 1.53 100 998.7
20260507204004 60 169 16.0 26.0 0.01 1.54 1.53 99 999.0
20260507203503 62 334 13.0 18.0 0.01 1.54 1.53 100 999.0
20260507203006 62 336 13.0 18.0 0.01 1.54 1.53 100 999.0
20260507202502 62 180 14.0 20.0 0.01 1.54 1.53 100 999.3
20260507202002 61 207 13.0 20.0 0.01 1.54 1.53 100 999.2
20260507201502 61 329 12.0 20.0 0.01 1.54 1.53 100 999.4
20260507201003 62 266 12.0 20.0 0.01 1.54 1.53 100 999.6
20260507200504 61 175 10.0 20.0 0.01 1.54 1.53 100 999.5
20260507200007 61 242 9.0 14.0 0.00 1.53 1.52 100 999.4
20260507195503 61 338 7.0 13.0 0.00 1.53 1.52 100 999.4
20260507195003 61 260 5.0 12.0 0.00 1.53 1.52 100 999.4
20260507194502 61 345 5.0 9.0 0.00 1.53 1.52 100 998.9
20260507194004 61 339 4.0 8.0 0.00 1.53 1.52 100 999.1
20260507193501 61 340 4.0 9.0 0.00 1.53 1.52 100 998.7
20260507193006 61 343 4.0 9.0 0.00 1.53 1.52 100 998.6
20260507192502 61 338 4.0 8.0 0.00 1.53 1.52 100 998.5
20260507192005 61 343 5.0 9.0 0.00 1.53 1.52 100 998.6
20260507191502 61 345 5.0 9.0 0.00 1.53 1.52 100 998.8
20260507191002 61 329 6.0 10.0 0.00 1.53 1.52 100 998.9
20260507190501 61 336 7.0 10.0 0.00 1.53 1.52 100 999.0
20260507190008 61 343 6.0 10.0 0.00 1.53 1.52 100 999.0
20260507185004 61 334 5.0 8.0 0.00 1.53 1.52 100 999.0
20260507184504 61 331 5.0 8.0 0.00 1.53 1.52 100 998.7
20260507183502 62 336 4.0 7.0 0.00 1.53 1.52 100 998.3
20260507181501 62 331 5.0 8.0 0.02 1.53 1.52 100 999.2
20260507181004 62 308 5.0 8.0 0.02 1.53 1.52 100 999.2
20260507180503 62 338 4.0 6.0 0.02 1.53 1.52 100 999.2
20260507180006 62 338 4.0 6.0 0.02 1.53 1.52 100 999.3
20260507175501 62 332 4.0 6.0 0.02 1.53 1.52 100 999.2
20260507175004 62 229 4.0 6.0 0.03 1.53 1.52 100 999.0
20260507174501 62 341 4.0 7.0 0.03 1.53 1.52 100 999.0
20260507174002 62 335 4.0 7.0 0.04 1.53 1.52 100 999.4
20260507173502 62 333 6.0 11.0 0.04 1.53 1.52 100 999.1
20260507173006 62 336 7.0 11.0 0.05 1.53 1.52 100 999.6
20260507172501 62 329 6.0 11.0 0.04 1.52 1.51 100 1000.0
20260507172003 62 336 4.0 9.0 0.04 1.51 1.50 100 1000.0
20260507171003 62 329 4.0 10.0 0.06 1.51 1.50 100 999.7
20260507170501 62 324 2.0 7.0 0.06 1.50 1.50 100 999.3
20260507165501 62 337 5.0 7.0 0.09 1.50 1.50 100 999.8
20260507165002 62 334 5.0 7.0 0.09 1.50 1.49 100 1000.0
20260507164502 61 336 5.0 7.0 0.09 1.50 1.49 100 1000.1
20260507164003 61 336 5.0 8.0 0.10 1.49 1.48 100 1000.0
20260507163503 61 317 5.0 8.0 0.12 1.49 1.48 100 1000.2
20260507163004 61 336 4.0 8.0 0.12 1.48 1.47 100 999.8
20260507162502 61 338 4.0 7.0 0.14 1.48 1.47 100 999.8
20260507162002 61 337 3.0 7.0 0.15 1.47 1.46 100 1000.0
20260507161502 61 341 2.0 5.0 0.15 1.46 1.46 99 999.7
20260507161002 61 343 4.0 9.0 0.15 1.46 1.45 100 999.6
20260507160503 61 331 6.0 9.0 0.15 1.45 1.44 99 1000.1
20260507155500 61 324 11.0 18.0 0.17 1.42 1.41 99 1001.2
20260507155001 61 329 12.0 19.0 0.17 1.41 1.40 99 1001.2
20260507154500 61 328 11.0 19.0 0.18 1.40 1.39 99 1001.4
20260507154003 61 316 10.0 16.0 0.17 1.39 1.38 99 1000.8
20260507153501 61 333 10.0 16.0 0.17 1.37 1.36 99 1000.7
20260507153003 61 335 11.0 16.0 0.16 1.35 1.35 99 1000.6
20260507152502 61 331 12.0 17.0 0.15 1.34 1.33 99 1001.0
20260507152004 61 338 14.0 22.0 0.14 1.32 1.31 99 1000.9
20260507151501 61 335 14.0 22.0 0.14 1.31 1.31 99 1001.0
20260507151003 61 338 13.0 22.0 0.13 1.31 1.30 99 1001.1
20260507150501 62 334 13.0 21.0 0.13 1.29 1.28 99 1001.1
20260507150009 61 275 14.0 22.0 0.12 1.28 1.27 99 1001.2
20260507145502 61 294 14.0 22.0 0.09 1.25 1.24 99 1001.7
20260507145003 61 329 15.0 24.0 0.08 1.24 1.23 99 1001.4
20260507144501 61 174 16.0 24.0 0.07 1.22 1.21 99 1001.3
20260507144003 61 334 18.0 27.0 0.06 1.21 1.20 99 1001.4
20260507143502 61 329 22.0 28.0 0.06 1.20 1.20 99 1001.5
20260507143003 61 163 22.0 30.0 0.05 1.20 1.19 99 1001.8
20260507142502 61 168 21.0 35.0 0.05 1.19 1.18 99 1002.0
20260507142003 61 183 18.0 35.0 0.04 1.18 1.17 99 1002.1
20260507141502 62 295 16.0 30.0 0.03 1.17 1.17 99 1002.1
20260507141003 62 320 15.0 26.0 0.03 1.17 1.17 99 1002.1
20260507140501 62 335 15.0 23.0 0.02 1.17 1.16 100 1001.4
20260507140007 62 337 15.0 24.0 0.02 1.16 1.15 100 1000.9
20260507135502 62 336 14.0 24.0 0.02 1.16 1.15 100 1000.6
20260507135002 62 338 11.0 21.0 0.02 1.16 1.15 99 1000.4
20260507134501 62 335 10.0 15.0 0.01 1.15 1.14 99 1000.3
20260507133502 62 336 9.0 16.0 0.02 1.15 1.14 99 1000.0
20260507133003 61 346 9.0 16.0 0.02 1.15 1.14 99 1000.2
20260507132501 61 341 10.0 16.0 0.01 1.14 1.13 99 1000.2
20260507132002 61 329 10.0 19.0 0.02 1.14 1.13 99 999.8
20260507131502 61 347 10.0 19.0 0.02 1.14 1.13 99 999.6
20260507131003 61 346 11.0 18.0 0.02 1.14 1.13 99 999.6
20260507130502 61 348 10.0 18.0 0.02 1.14 1.13 99 999.5
20260507130005 61 341 8.0 16.0 0.02 1.14 1.13 99 999.5
20260507125003 61 359 6.0 14.0 0.03 1.14 1.13 99 999.2
20260507124502 61 2 7.0 16.0 0.04 1.14 1.13 99 998.3
20260507124002 61 14 9.0 16.0 0.04 1.14 1.13 99 997.7
20260507123502 61 348 10.0 18.0 0.04 1.13 1.13 99 998.2
20260507122502 60 354 9.0 18.0 0.05 1.13 1.13 99 997.7
20260507122003 60 348 9.0 18.0 0.05 1.13 1.12 99 998.1
20260507121501 60 342 10.0 18.0 0.06 1.13 1.12 99 998.1
20260507121007 60 343 10.0 18.0 0.06 1.12 1.11 99 998.6
20260507120502 60 2 10.0 20.0 0.07 1.12 1.11 99 998.6
20260507120006 60 22 9.0 20.0 0.08 1.12 1.11 99 998.6
20260507115501 60 21 10.0 17.0 0.09 1.12 1.11 99 998.4
20260507115003 60 349 11.0 19.0 0.09 1.11 1.10 99 998.6
20260507114502 60 8 10.0 19.0 0.11 1.10 1.09 99 998.2
20260507114001 60 28 9.0 16.0 0.13 1.09 1.09 99 999.4
20260507113500 60 355 8.0 16.0 0.16 1.09 1.09 99 999.3
20260507113001 60 357 8.0 15.0 0.16 1.09 1.08 99 999.3
20260507112500 60 28 8.0 14.0 0.16 1.08 1.07 99 999.1
20260507112002 60 351 8.0 14.0 0.17 1.08 1.07 99 999.3
20260507111502 60 347 7.0 14.0 0.19 1.07 1.06 99 999.4
20260507111001 60 351 7.0 14.0 0.19 1.06 1.05 99 999.7
20260507110500 60 359 6.0 13.0 0.19 1.05 1.04 99 999.6
20260507110005 61 8 5.0 10.0 0.18 1.04 1.03 99 1000.0